Weather History for KPRO - October, 2014

Change the Weather History Date:

Wednesday, October 29, 2014

  Actual Average Record
Temperature  
Mean Temperature 44 °F -  
Max Temperature 53 °F 55 °F 80 °F (1950)
Min Temperature 35 °F 33 °F 15 °F (1952)
Degree Days  
Heating Degree Days 21    
Moisture  
Dew Point 33 °F    
Average Humidity 65    
Maximum Humidity 91    
Minimum Humidity 43    
Precipitation  
Precipitation 0.00 in - - ()
Sea Level Pressure  
Sea Level Pressure 30.14 in    
Wind  
Wind Speed 6 mph (WNW)    
Max Wind Speed 13 mph    
Max Gust Speed 20 mph    
Visibility 10 miles    
Events      
Averages and records for this station are not official NWS values.
T = Trace of Precipitation, MM = Missing Value Source: NWS Daily Summary

Daily Weather History Graph

Daily Weather History Graph

Search for Another Location

Airport or City:

Trip Planner

Search our weather history database for the weather conditions in past years. The results will help you decide how hot, cold, wet, or windy it might be!

Date:

Astronomy

Oct. 29, 2014 Rise Set
Actual Time 7:45 AM CDT 6:14 PM CDT
Civil Twilight 7:16 AM CDT 6:43 PM CDT
Nautical Twilight 6:43 AM CDT 7:16 PM CDT
Astronomical Twilight 6:11 AM CDT 7:48 PM CDT
Moon 1:05 PM CDT (10/29) 11:24 PM CDT (10/29)
Length of Visible Light 11h 26m
Length of Day
10h 29m
Waxing Crescent, 34% of the Moon is Illuminated
Oct 29
Waxing Crescent
Oct 30
First Quarter
Nov 6
Full
Nov 14
Last Quarter
Nov 22
New

Hourly Weather History & Observations

Time (CDT) Temp. Windchill Dew Point Humidity Pressure Visibility Wind Dir Wind Speed Gust Speed Precip Events Conditions
12:15 AM 45.9 °F 42.3 °F 32.4 °F 59% 30.11 in 10.0 mi NW 6.9 mph - N/A   Overcast
12:35 AM 45.7 °F 39.8 °F 32.0 °F 59% 30.11 in 10.0 mi NW 12.7 mph 19.6 mph N/A   Overcast
12:55 AM 45.9 °F 41.2 °F 32.0 °F 58% 30.11 in 10.0 mi NW 9.2 mph 17.3 mph N/A   Overcast
1:15 AM 45.9 °F 41.2 °F 32.0 °F 58% 30.11 in 10.0 mi NW 9.2 mph 16.1 mph N/A   Overcast
1:35 AM 45.9 °F 42.9 °F 32.2 °F 59% 30.11 in 10.0 mi NW 5.8 mph 16.1 mph N/A   Overcast
1:55 AM 46.0 °F 41.9 °F 32.2 °F 58% 30.11 in 10.0 mi NW 8.1 mph 17.3 mph N/A   Overcast
2:15 AM 45.9 °F 40.0 °F 32.4 °F 59% 30.11 in 10.0 mi NW 12.7 mph 18.4 mph N/A   Overcast
2:35 AM 45.5 °F 39.9 °F 32.4 °F 60% 30.12 in 10.0 mi NW 11.5 mph - N/A   Overcast
2:55 AM 45.0 °F 38.9 °F 32.0 °F 60% 30.13 in 10.0 mi NW 12.7 mph 18.4 mph N/A   Mostly Cloudy
3:15 AM 44.1 °F 38.6 °F 32.0 °F 63% 30.12 in 10.0 mi NW 10.4 mph 17.3 mph N/A   Clear
3:35 AM 43.7 °F 39.1 °F 32.2 °F 64% 30.13 in 10.0 mi NW 8.1 mph - N/A   Mostly Cloudy
3:55 AM 44.1 °F 39.5 °F 32.4 °F 63% 30.13 in 10.0 mi NW 8.1 mph - N/A   Overcast
4:15 AM 43.9 °F 38.8 °F 32.0 °F 63% 30.13 in 10.0 mi NW 9.2 mph 16.1 mph N/A   Mostly Cloudy
4:35 AM 42.3 °F 38.6 °F 32.0 °F 67% 30.13 in 10.0 mi WNW 5.8 mph - N/A   Scattered Clouds
4:55 AM 40.8 °F 37.8 °F 32.0 °F 71% 30.14 in 10.0 mi WNW 4.6 mph - N/A   Scattered Clouds
5:15 AM 40.1 °F 36.1 °F 32.2 °F 73% 30.14 in 10.0 mi WNW 5.8 mph - N/A   Scattered Clouds
5:35 AM 40.3 °F 35.5 °F 32.5 °F 74% 30.15 in 10.0 mi WNW 6.9 mph - N/A   Mostly Cloudy
5:55 AM 41.2 °F 37.3 °F 32.4 °F 71% 30.15 in 10.0 mi WNW 5.8 mph - N/A   Overcast
6:15 AM 41.0 °F 38.0 °F 32.9 °F 73% 30.16 in 10.0 mi WNW 4.6 mph - N/A   Overcast
6:35 AM 40.6 °F 38.6 °F 32.9 °F 74% 30.16 in 10.0 mi WNW 3.5 mph - N/A   Overcast
6:55 AM 41.0 °F 39.0 °F 33.3 °F 74% 30.17 in 10.0 mi WNW 3.5 mph - N/A   Overcast
7:15 AM 40.6 °F 37.5 °F 33.4 °F 75% 30.17 in 10.0 mi WNW 4.6 mph - N/A   Overcast
7:35 AM 40.8 °F 37.8 °F 33.3 °F 74% 30.18 in 10.0 mi WNW 4.6 mph - N/A   Overcast
7:55 AM 41.0 °F 39.0 °F 33.4 °F 74% 30.18 in 10.0 mi NW 3.5 mph - N/A   Overcast
8:15 AM 41.2 °F 38.2 °F 33.4 °F 74% 30.18 in 10.0 mi NW 4.6 mph - N/A   Overcast
8:35 AM 41.9 °F 39.0 °F 33.4 °F 72% 30.20 in 10.0 mi NW 4.6 mph - N/A   Overcast
8:55 AM 42.4 °F - 33.6 °F 71% 30.20 in 10.0 mi Calm Calm - N/A   Overcast
9:15 AM 43.0 °F 40.3 °F 33.6 °F 70% 30.21 in 10.0 mi NNW 4.6 mph - N/A   Overcast
9:35 AM 43.7 °F 40.3 °F 33.3 °F 67% 30.21 in 10.0 mi NNW 5.8 mph - N/A   Overcast
9:55 AM 44.2 °F 40.3 °F 33.3 °F 65% 30.21 in 10.0 mi NNW 6.9 mph - N/A   Overcast
10:15 AM 44.6 °F 41.4 °F 32.9 °F 64% 30.21 in 10.0 mi NNW 5.8 mph - N/A   Overcast
10:35 AM 45.1 °F 40.8 °F 32.7 °F 62% 30.22 in 10.0 mi NNW 8.1 mph - N/A   Overcast
10:55 AM 45.7 °F 42.0 °F 32.7 °F 61% 30.21 in 10.0 mi NW 6.9 mph - N/A   Overcast
11:15 AM 45.9 °F - 32.5 °F 60% 30.21 in 10.0 mi Calm Calm - N/A   Overcast
11:35 AM 46.6 °F - 32.7 °F 59% 30.22 in 10.0 mi Calm Calm - N/A   Mostly Cloudy
11:55 AM 47.7 °F - 33.3 °F 57% 30.21 in 10.0 mi West 5.8 mph - N/A   Mostly Cloudy
12:15 PM 48.9 °F - 33.3 °F 55% 30.21 in 10.0 mi NW 6.9 mph - N/A   Scattered Clouds
12:35 PM 49.3 °F - 33.1 °F 54% 30.20 in 10.0 mi Calm Calm - N/A   Clear
12:55 PM 50.0 °F - 33.1 °F 52% 30.20 in 10.0 mi North 4.6 mph - N/A   Clear
1:15 PM 51.1 °F - 33.6 °F 51% 30.19 in 10.0 mi West 5.8 mph - N/A   Clear
1:35 PM 51.4 °F - 33.6 °F 51% 30.18 in 10.0 mi WNW 4.6 mph - N/A   Clear
1:55 PM 51.1 °F - 32.9 °F 50% 30.17 in 10.0 mi NNW 4.6 mph - N/A   Clear
2:15 PM 52.2 °F - 33.1 °F 48% 30.17 in 10.0 mi WSW 4.6 mph - N/A   Clear
2:35 PM 52.2 °F - 32.7 °F 48% 30.16 in 10.0 mi NW 4.6 mph - N/A   Clear
2:55 PM 52.5 °F - 32.9 °F 47% 30.16 in 10.0 mi West 5.8 mph - N/A   Clear
3:15 PM 53.1 °F - 32.2 °F 45% 30.14 in 10.0 mi NNW 8.1 mph - N/A   Clear
3:35 PM 53.6 °F - 32.7 °F 45% 30.14 in 10.0 mi WSW 3.5 mph - N/A   Clear
3:55 PM 53.8 °F - 32.2 °F 44% 30.13 in 10.0 mi SW 3.5 mph - N/A   Clear
4:15 PM 53.6 °F - 32.2 °F 44% 30.13 in 10.0 mi West 5.8 mph - N/A   Clear
4:35 PM 53.6 °F - 32.0 °F 44% 30.13 in 10.0 mi West 4.6 mph - N/A   Clear
4:55 PM 53.8 °F - 31.8 °F 43% 30.12 in 10.0 mi West 8.1 mph - N/A   Clear
5:15 PM 53.1 °F - 31.8 °F 44% 30.11 in 10.0 mi West 4.6 mph - N/A   Clear
5:35 PM 52.3 °F - 32.0 °F 46% 30.11 in 10.0 mi Calm Calm - N/A   Clear
5:55 PM 50.4 °F - 33.4 °F 52% 30.11 in 10.0 mi SSW 4.6 mph - N/A   Clear
6:15 PM 46.9 °F - 33.6 °F 60% 30.10 in 10.0 mi SSW 3.5 mph - N/A   Clear
6:35 PM 43.3 °F 41.7 °F 33.8 °F 69% 30.10 in 10.0 mi South 3.5 mph - N/A   Clear
6:55 PM 42.6 °F 39.9 °F 33.4 °F 70% 30.10 in 7.0 mi South 4.6 mph - N/A   Clear
7:15 PM 40.8 °F 36.9 °F 33.3 °F 74% 30.11 in 10.0 mi SSW 5.8 mph - N/A   Clear
7:35 PM 39.0 °F 35.7 °F 33.4 °F 80% 30.11 in 10.0 mi SSW 4.6 mph - N/A   Clear
7:55 PM 38.7 °F 35.2 °F 33.3 °F 81% 30.11 in 10.0 mi South 4.6 mph - N/A   Clear
8:15 PM 38.7 °F - 33.3 °F 81% 30.10 in 10.0 mi Calm Calm - N/A   Clear
8:35 PM 37.6 °F 35.1 °F 32.9 °F 83% 30.10 in 7.0 mi South 3.5 mph - N/A   Clear
8:55 PM 37.0 °F 34.5 °F 33.1 °F 86% 30.11 in 10.0 mi South 3.5 mph - N/A   Clear
9:15 PM 37.4 °F 34.9 °F 33.3 °F 85% 30.11 in 7.0 mi South 3.5 mph - N/A   Clear
9:35 PM 36.9 °F 33.1 °F 32.7 °F 85% 30.11 in 10.0 mi South 4.6 mph - N/A   Clear
9:55 PM 36.5 °F 33.9 °F 32.9 °F 87% 30.11 in 10.0 mi South 3.5 mph - N/A   Clear
10:15 PM 36.5 °F 33.9 °F 32.9 °F 87% 30.10 in 10.0 mi South 3.5 mph - N/A   Clear
10:35 PM 35.2 °F 32.4 °F 32.7 °F 91% 30.11 in 10.0 mi SSE 3.5 mph - N/A   Clear
10:55 PM 36.5 °F 33.9 °F 33.1 °F 87% 30.10 in 10.0 mi South 3.5 mph - N/A   Clear
11:15 PM 36.9 °F 34.3 °F 33.4 °F 87% 30.10 in 10.0 mi South 3.5 mph - N/A   Clear
11:35 PM 36.9 °F 34.3 °F 33.4 °F 87% 30.09 in 10.0 mi SSE 3.5 mph - N/A   Clear
11:55 PM 36.9 °F 34.3 °F 33.8 °F 89% 30.09 in 10.0 mi SE 3.5 mph - N/A   Clear